User: anonymous   Login
Location: Rounton
(54.4000°N, 1.3500°W)
Time: 00:17:14
(UTC+00:00)
Language:

Tiangong - Orbit

View from above orbital plane
View from above orbital plane
View from above satellite
View from above satellite

Ground track
Ground track

The orbit data is extracted from the following two-line orbital elements,

1 48274U 21035A   21340.37454046  .00013118  00000-0  15011-3 0  9994
2 48274  41.4706 313.3962 0003652 170.1503 314.0656 15.61906311 34622
Epoch (UTC): 06 December 2021 08:59:20
Eccentricity: 0.0003652
inclination: 41.4706°
perigee height: 379 km
apogee height: 384 km
right ascension of ascending node: 313.3962°
argument of perigee: 170.1503°
revolutions per day: 15.61906311
mean anomaly at epoch: 314.0656°
orbit number at epoch: 3462

The dashed part of the orbit path shows where the satellite is in the earth's shadow,  

DLR